Terug naar catalogus

FENGYUN 1C DEB

LostSSO
NORAD 31778·DEBRIS·🇨🇳 China

Gelanceerd May 10, 1999 vanaf Taiyuan Satellite Launch Center

Loading…

Volgende Passages (komende 24 uur)

TLE

VerouderdSource: Space-Track

Epoch: Jun 2, 2011, 02:14 UTC

1 31778U 99025CGD 11153.09374280  .00000128  00000-0  86129-4 0  9996
2 31778 099.3182 203.0446 0046715 078.1140 282.5735 14.00176789738242

Volg FENGYUN 1C DEB in realtime met AllMySat

Download on the App Store